Regional Weather Roundup
Issued by NWS Green Bay, WI

Home | Current Version | Previous Version | Text Only | Print | Product List | Glossary On
Versions: 1 2 3 4 5 6 7 8 9 10 11 12 13 14 15 16 17 18 19 20 21 22 23 24 25 26 27 28 29 30 31 32 33 34 35 36 37 38 39 40 41 42 43 44 45 46 47 48 49 50
000
ASUS43 KGRB 300210
RWRGRB

NORTH-CENTRAL AND NORTHEAST WISCONSIN REGIONAL WEATHER ROUNDUP
NATIONAL WEATHER SERVICE GREEN BAY WI
900 PM CDT FRI AUG 29 2014

WIZ005-009-010>012-018-019-300300-
NORTH CENTRAL WISCONSIN

CITY           SKY/WX    TMP DP  RH WIND       PRES   REMARKS
IRONWOOD       NOT AVBL
MANITOWISH WTR LGT RAIN  64  64 100 SE3       29.81F
ARBOR VITAE    RAIN      64  63  94 SE3       29.83F
EAGLE RIVER    RAIN      63  63 100 S6        29.84S
LAND O LAKES   RAIN      64  63  95 S3        29.84S
RHINELANDER    LGT RAIN  64  63  96 S3        29.84F
PHILLIPS       CLOUDY    64  63  99 CALM      29.80S
ANTIGO         CLOUDY    65  64  95 W7        29.87R
TOMAHAWK       RAIN      64  63  96 E6        29.81F
MERRILL        LGT RAIN  66  66 100 E5        29.82F
$$

WIZ013-073-300300-
NORTHEAST WISCONSIN

CITY           SKY/WX    TMP DP  RH WIND       PRES   REMARKS
IRON MOUNTAIN  RAIN      68  66  93 S6        29.83R FOG
MARINETTE      CLOUDY    72  66  83 S7        29.82R
OCONTO         CLOUDY    72  71  97 S7        29.81R
$$

WIZ017-030-035>037-045-300300-
CENTRAL WISCONSIN

CITY           SKY/WX    TMP DP  RH WIND       PRES   REMARKS
MEDFORD        CLOUDY    64  63  98 SE6       29.83R
WAUSAU         LGT RAIN  66  64  93 N5        29.81F
MOSINEE        CLOUDY    68  64  88 W9        29.84
MARSHFIELD     RAIN      67  65  93 CALM      29.83R FOG
WISC RAPIDS    MOCLDY    76  70  82 W16G22    29.83R
STEVENS POINT  MOCLDY    73  69  87 S3        29.81S
WAUPACA        MOCLDY    76  71  83 S3        29.82R
SHAWANO        MOCLDY    78  69  74 CALM      29.81R
CLINTONVILLE   MOCLDY    75  68  78 S7        29.81R
$$

WIZ038-039-048-051-300300-
FOX VALLEY

CITY           SKY/WX    TMP DP  RH WIND       PRES   REMARKS
NWS GREEN BAY  MOCLDY    73  71  93 S8        29.82S
APPLETON       MOCLDY    75  70  83 S9        29.83S
OSHKOSH        PTCLDY    75  71  87 S9        29.82S
FOND DU LAC    PTCLDY    75  70  84 S8        29.84R
$$

WIZ022-050-052-300300-
EAST CENTRAL WISCONSIN

CITY           SKY/WX    TMP DP  RH WIND       PRES   REMARKS
STURGEON BAY   CLOUDY    70  66  88 S16       29.84S
MANITOWOC      MOCLDY    71  69  93 S16G22    29.85S
SHEBOYGAN      PTCLDY    73  69  87 S14G23    29.86S
$$

LMZ563-521-522-541>543-300300-
LAKESHORE

STATION/POSITION TIME  TEMP    WIND        PRES    VSBY  WAVE
                       AIR SEA DIR/SP/G                  HT/PER
                 (UTC) (F)     (DEG/KT/KT) (MB)    (MI)  (FT/S)
SHEBOYGAN LKSHOR 0200   69 63  180/ 16/ 17 1011.0F
KEWAUNEE LKSHORE 0200   65     180/ 12/ 15 1010.0S
NORTHPORT PIER   0200   68     160/ 11/ 17 1010.2S
N MID LAKE BUOY  0200   69 65  180/ 17/ 21 1009.9F         4/ 6
SISTER BAY LKSHO 0100   70     180/ 23/ 29   N/A
CHAMBERS ISLAND  0200   71     140/  8/ 16 1009.8S
MENOMINEE LKSHOR 0200   71     180/  8/ 11 1010.4R
$$


USA.gov is the U.S. government's official web portal to all federal, state and local government web resources and services.